Flag for U.S.A. Weather past 2 weeks in St. Louis, Missouri, U.S.A.

Now
44 °F

Partly sunny.


Feels Like: 42 °F
Forecast: 33 / 45 °F
Wind: 5 mph from North

Location: Lambert-St. Louis International Airport

Current Time: Jan 27, 2015 at 3:39:35 PM

Latest Report: Jan 27, 2015 at 2:51 PM


Visibility: 10 mi

Pressure: 30.19 "Hg

Humidity: 60%

Dew point: 31 °F

Location of St. LouisLocation

Historic Weather in St. Louis — Graph

°F

St. Louis temperature yesterday

Maximum temperature yesterday: 41 °F (at 2:51 PM)
Minimum temperature yesterday: 25 °F (at 4:51 AM)
Average temperature yesterday: 33 °F

Past Weeks' High & Low Weather Summary

 TemperatureHumidityPressure
High62 °F (Jan 17, 12:51 PM)89% (Jan 25, 1:51 PM)30.71 "Hg (Jan 25, 1:51 PM)
Low13 °F (Jan 13, 5:51 AM)31% (Jan 18, 2:51 PM)29.58 "Hg (Jan 25, 8:51 AM)
Average37 °F64%30.13 "Hg
* Reported Jan 12 2:51 PM — Jan 27 2:01 PM, St. Louis, Weather by CustomWeather, © 2014

Note: Actual official high and low records may vary slightly from our data, if they occured in-between our weather recording intervals... More about our weather records

Advertising

St. Louis weather history for previous 24 hours

 ConditionsComfort  
Time TempWeatherWind HumidityBarometerVisibility
2:01 PM
Jan 27
45 °FPartly sunny.8 mph57%30.16 "Hg10 mi
12:51 PM44 °FPartly sunny.9 mph60%30.17 "Hg10 mi
11:51 AM43 °FPartly sunny.12 mph65%30.18 "Hg10 mi
10:51 AM42 °FPartly sunny.8 mph68%30.19 "Hg10 mi
9:51 AM42 °FPassing clouds.6 mph73%30.17 "Hg10 mi
9:02 AM39 °FScattered clouds.7 mph81%30.13 "Hg10 mi
8:51 AM38 °FPartly sunny.6 mph83%30.14 "Hg10 mi
7:51 AM35 °FPartly sunny.5 mph88%30.12 "Hg8 mi
6:51 AM33 °FPassing clouds.5 mph88%30.10 "Hg9 mi
6:03 AM36 °FPassing clouds.6 mph81%30.04 "Hg9 mi
5:51 AM36 °FPassing clouds.7 mph85%30.06 "Hg10 mi
4:51 AM36 °FPassing clouds.8 mph82%30.02 "Hg10 mi
3:51 AM38 °FPassing clouds.8 mph79%29.99 "Hg10 mi
2:51 AM36 °FPassing clouds.7 mph82%29.98 "Hg10 mi
1:51 AM36 °FPassing clouds.8 mph79%29.96 "Hg10 mi
12:51 AM36 °FPassing clouds.6 mph79%29.95 "Hg10 mi
11:51 PM
Jan 26
37 °FPassing clouds.6 mph76%29.93 "Hg10 mi
10:51 PM38 °FOvercast.3 mph73%29.94 "Hg10 mi
9:51 PM37 °FMostly cloudy.No wind76%29.94 "Hg10 mi
8:51 PM37 °FOvercast.3 mph73%29.94 "Hg10 mi
7:51 PM34 °FPassing clouds.3 mph76%29.95 "Hg10 mi
6:51 PM32 °FPassing clouds.7 mph79%29.95 "Hg10 mi
5:51 PM36 °FPassing clouds.7 mph73%29.94 "Hg10 mi
4:51 PM38 °FScattered clouds.8 mph70%29.92 "Hg10 mi
3:51 PM41 °FPartly sunny.No wind62%29.92 "Hg10 mi
Weather by CustomWeather, © 2014

See weather overviewHow to use our weather pages